TimeAKST,TemperatureF,Dew PointF,Humidity,Sea Level PressureIn,VisibilityMPH,Wind Direction,Wind SpeedMPH,Gust SpeedMPH,PrecipitationIn,Events,Conditions,WindDirDegrees,DateUTC
12:55 AM,33.8,23.0,65,30.07,10.0,South,4.6,-,N/A,,Mostly Cloudy,180,2013-03-05 09:55:00
2:55 AM,34.3,22.5,62,30.11,10.0,SSE,4.6,-,N/A,,Mostly Cloudy,160,2013-03-05 11:55:00
3:55 AM,34.9,21.0,57,30.09,10.0,SE,5.8,-,N/A,,Mostly Cloudy,130,2013-03-05 12:55:00
4:55 AM,35.1,20.8,56,30.09,10.0,Variable,3.5,-,N/A,,Overcast,0,2013-03-05 13:55:00
5:55 AM,34.5,20.8,57,30.08,10.0,SSE,8.1,16.1,N/A,,Mostly Cloudy,160,2013-03-05 14:55:00
6:55 AM,34.2,20.7,58,30.06,10.0,SSE,8.1,17.3,N/A,,Mostly Cloudy,150,2013-03-05 15:55:00
7:55 AM,34.5,21.0,58,30.05,10.0,SSE,10.4,15.0,N/A,,Overcast,150,2013-03-05 16:55:00
8:05 AM,33.8,21.2,60,30.05,10.0,SE,11.5,18.4,N/A,,Mostly Cloudy,140,2013-03-05 17:05:00
8:55 AM,33.8,21.2,60,30.04,10.0,SSE,9.2,17.3,N/A,,Mostly Cloudy,150,2013-03-05 17:55:00
9:14 AM,33.8,21.2,60,30.04,10.0,SSE,6.9,16.1,N/A,,Scattered Clouds,160,2013-03-05 18:14:00
9:55 AM,33.8,19.4,56,30.03,10.0,Variable,4.6,-,N/A,,Mostly Cloudy,0,2013-03-05 18:55:00
10:55 AM,35.6,21.2,56,30.00,10.0,ESE,11.5,18.4,N/A,,Mostly Cloudy,120,2013-03-05 19:55:00
11:14 AM,35.6,21.2,56,30.00,10.0,SE,11.5,23.0,N/A,,Clear,140,2013-03-05 20:14:00
11:55 AM,35.8,20.7,54,29.99,10.0,SSE,11.5,19.6,N/A,,Partly Cloudy,150,2013-03-05 20:55:00
12:55 PM,36.7,20.7,52,29.98,10.0,East,8.1,13.8,N/A,,Clear,90,2013-03-05 21:55:00
1:55 PM,37.2,21.9,54,29.96,10.0,SE,12.7,19.6,N/A,,Mostly Cloudy,130,2013-03-05 22:55:00
2:55 PM,36.5,21.7,55,29.94,10.0,SE,6.9,12.7,N/A,,Mostly Cloudy,140,2013-03-05 23:55:00
3:55 PM,36.1,21.9,56,29.92,10.0,Variable,5.8,-,N/A,,Scattered Clouds,0,2013-03-06 00:55:00
4:55 PM,36.0,21.6,56,29.90,10.0,SE,9.2,-,N/A,,Mostly Cloudy,130,2013-03-06 01:55:00
5:55 PM,35.6,21.4,56,29.89,10.0,Variable,3.5,-,N/A,,Scattered Clouds,0,2013-03-06 02:55:00
6:55 PM,34.9,21.7,59,29.87,10.0,SSE,10.4,-,N/A,,Mostly Cloudy,160,2013-03-06 03:55:00
7:55 PM,35.2,21.7,58,29.87,10.0,Variable,4.6,-,N/A,,Mostly Cloudy,0,2013-03-06 04:55:00
8:55 PM,34.9,22.1,60,29.86,10.0,SSE,5.8,13.8,N/A,,Overcast,150,2013-03-06 05:55:00
9:55 PM,34.5,22.1,61,29.85,10.0,Variable,4.6,-,N/A,,Mostly Cloudy,0,2013-03-06 06:55:00
10:55 PM,34.2,22.1,61,29.84,10.0,SE,9.2,16.1,N/A,,Mostly Cloudy,140,2013-03-06 07:55:00
11:55 PM,34.2,22.1,61,29.83,10.0,SSE,11.5,-,N/A,,Overcast,150,2013-03-06 08:55:00